This is the latest recevied weather packets stored in our database for station/object HB9BB-10. If no packets are shown the sender has not sent any weather packets the latest 10 day(s).
| Time | Temp. | Humidity | Pressure | Rain* | Wind** | Luminosity | Snow |
|---|---|---|---|---|---|---|---|
| 1788458249 | 27.22° C | 30% | 1040.5 hPa | - | - | - | - |
| 1788456869 | 27.78° C | 30% | 1040.4 hPa | - | - | - | - |
| 1788455489 | 27.78° C | 30% | 1040.4 hPa | - | - | - | - |
| 1788454109 | 27.78° C | 30% | 1040.4 hPa | - | - | - | - |
| 1788452729 | 27.78° C | 30% | 1040.4 hPa | - | - | - | - |
| 1788451348 | 27.78° C | 30% | 1040.4 hPa | - | - | - | - |
| 1788449968 | 27.78° C | 30% | 1040.2 hPa | - | - | - | - |
| 1788448588 | 27.78° C | 30% | 1040.5 hPa | - | - | - | - |
| 1788447208 | 27.78° C | 30% | 1040.4 hPa | - | - | - | - |
| 1788445828 | 27.78° C | 30% | 1040.4 hPa | - | - | - | - |
| 1788444448 | 27.78° C | 30% | 1040.3 hPa | - | - | - | - |
| 1788443067 | 27.78° C | 30% | 1040.3 hPa | - | - | - | - |
| 1788441687 | 27.78° C | 30% | 1040.1 hPa | - | - | - | - |
| 1788440307 | 27.78° C | 30% | 1040.4 hPa | - | - | - | - |
| 1788438927 | 27.22° C | 31% | 1040.5 hPa | - | - | - | - |
| 1788437547 | 27.22° C | 31% | 1040.7 hPa | - | - | - | - |
| 1788436166 | 26.67° C | 31% | 1040.8 hPa | - | - | - | - |
| 1788434786 | 26.67° C | 31% | 1040.8 hPa | - | - | - | - |
| 1788433406 | 26.11° C | 31% | 1040.6 hPa | - | - | - | - |
| 1788432026 | 26.11° C | 30% | 1040.6 hPa | - | - | - | - |
| 1788430646 | 25.56° C | 31% | 1040.7 hPa | - | - | - | - |
| 1788429266 | 25.56° C | 31% | 1040.8 hPa | - | - | - | - |
| 1788427885 | 25.56° C | 31% | 1040.5 hPa | - | - | - | - |
| 1788426505 | 25° C | 31% | 1041 hPa | - | - | - | - |
| 1788425125 | 24.44° C | 31% | 1040.5 hPa | - | - | - | - |
* Rain since midnight (hover to see other rain measurements)
** Current wind speed in m/s (hover to see current wind gust speed)